,�O�C���x,�����t���O,�O�C���x,�����t���O,�󒲎����x,�����t���O,�󒲎����x,�����t���O,��󒲎����x,�����t���O,����,�����t���O
2004/12/1 0:00,8.4,0,78,0,21.9,0,40.1,0,16.8,0,15.4,0
2004/12/1 0:15,8.4,0,78,0,22,0,39.4,0,16.8,0,15.2,0
2004/12/1 0:30,8.4,0,78,0,22,0,39.7,0,16.7,0,15.2,0
2004/12/1 0:45,8.2,0,78,0,22,0,39.9,0,16.7,0,15.2,0
2004/12/1 1:00,8.1,0,80,0,22,0,39.8,0,16.6,0,15.3,0
2004/12/1 1:15,8,0,80,0,22,0,39.6,0,16.6,0,15.3,0
2004/12/1 1:30,8,0,80,0,21.8,0,39.1,0,16.5,0,15.3,0
2004/12/1 1:45,7.9,0,80,0,21.6,0,39.1,0,16.6,0,15.5,0
2004/12/1 2:00,7.8,0,81,0,21.7,0,39.2,0,16.5,0,15.5,0
2004/12/1 2:15,7.7,0,81,0,21.7,0,39.2,0,16.4,0,15.5,0
2004/12/1 2:30,7.5,0,83,0,21.7,0,39.3,0,16.4,0,15.5,0
2004/12/1 2:45,7.5,0,83,0,21.7,0,39.2,0,16.3,0,15.5,0
2004/12/1 3:00,7.4,0,83,0,21.7,0,39.2,0,16.3,0,15.5,0
2004/12/1 3:15,7.2,0,84,0,21.7,0,39.2,0,16.2,0,15.5,0
2004/12/1 3:30,7.2,0,84,0,21.8,0,39.1,0,16.1,0,15.5,0
2004/12/1 3:45,7.1,0,84,0,21.8,0,39.1,0,16.1,0,15.5,0
2004/12/1 4:00,7.1,0,84,0,21.9,0,39.1,0,16,0,15.5,0
2004/12/1 4:15,7.2,0,84,0,21.8,0,39.1,0,15.9,0,15.5,0
2004/12/1 4:30,7.1,0,84,0,21.9,0,39.1,0,15.9,0,15.5,0
2004/12/1 4:45,7.1,0,84,0,21.9,0,39.1,0,15.8,0,15.5,0
2004/12/1 5:00,6.9,0,85,0,21.9,0,39.1,0,15.8,0,15.5,0
2004/12/1 5:15,6.9,0,85,0,21.9,0,39.1,0,15.7,0,15.5,0
2004/12/1 5:30,7,0,84,0,21.1,0,36.5,0,15.9,0,15.5,0
2004/12/1 5:45,6.9,0,85,0,20.5,0,36.9,0,16,0,15.1,0
2004/12/1 6:00,6.9,0,85,0,20,0,37.3,0,16.1,0,15.1,0
2004/12/1 6:15,6.8,0,86,0,19.7,0,37.7,0,16.1,0,15.1,0
2004/12/1 6:30,6.7,0,88,0,19.5,0,38.1,0,16,0,15.1,0
2004/12/1 6:45,6.8,0,88,0,19.2,0,38.5,0,16,0,15.1,0
2004/12/1 7:00,6.9,0,88,0,19,0,38.6,0,15.9,0,15.1,0
2004/12/1 7:15,7.1,0,87,0,18.8,0,38.9,0,15.8,0,15.1,0
2004/12/1 7:30,7.7,0,85,0,18.7,0,39.1,0,15.8,0,15.1,0
2004/12/1 7:45,8.4,0,83,0,18.5,0,39.4,0,15.8,0,15.1,0
2004/12/1 8:00,8.9,0,80,0,18.3,0,40.4,0,15.7,0,15.2,0
2004/12/1 8:15,9.3,0,78,0,18.2,0,40.6,0,15.7,0,15.2,0
2004/12/1 8:30,9.9,0,76,0,18.1,0,40.8,0,15.7,0,15.2,0
2004/12/1 8:45,10.5,0,72,0,18.1,0,40.9,0,15.7,0,15.2,0
2004/12/1 9:00,11,0,71,0,18.1,0,40.8,0,15.6,0,15.2,0
2004/12/1 9:15,11.7,0,69,0,18,0,41.1,0,15.6,0,15.1,0
2004/12/1 9:30,12.2,0,65,0,18,0,41.1,0,15.6,0,15.1,0
2004/12/1 9:45,12.7,0,62,0,17.9,0,41.2,0,15.6,0,15.1,0
2004/12/1 10:00,13.3,0,58,0,17.9,0,41.5,0,15.7,0,15.1,0
2004/12/1 10:15,13.9,0,54,0,17.9,0,41.6,0,15.7,0,15.1,0
2004/12/1 10:30,14.4,0,51,0,17.9,0,41.7,0,15.7,0,15.1,0
2004/12/1 10:45,14.9,0,52,0,17.9,0,41.8,0,15.7,0,15.1,0
2004/12/1 11:00,15.2,0,54,0,18,0,41.8,0,15.8,0,15.1,0
2004/12/1 11:15,15.3,0,54,0,18.1,0,41.7,0,15.8,0,15.1,0
2004/12/1 11:30,15.7,0,52,0,18.2,0,41.6,0,16,0,15.1,0
2004/12/1 11:45,16.2,0,52,0,18.3,0,41.5,0,16.1,0,15.1,0
2004/12/1 12:00,16.5,0,52,0,18.4,0,41.5,0,16.2,0,15.1,0
2004/12/1 12:15,16.4,0,52,0,18.5,0,41.5,0,16.4,0,15.1,0
2004/12/1 12:30,16.5,0,52,0,18.6,0,41.7,0,16.6,0,15.1,0
2004/12/1 12:45,16.8,0,51,0,18.7,0,41.7,0,16.8,0,15.1,0
2004/12/1 13:00,16.5,0,52,0,18.8,0,41.8,0,17,0,15.1,0
2004/12/1 13:15,16.7,0,52,0,18.9,0,41.9,0,17.1,0,15.1,0
2004/12/1 13:30,16.9,0,52,0,19,0,42,0,17.3,0,15.1,0
2004/12/1 13:45,16.8,0,51,0,19.1,0,42.1,0,17.5,0,15.1,0
2004/12/1 14:00,16.2,0,54,0,19.2,0,42.2,0,17.7,0,15.1,0
2004/12/1 14:15,16.1,0,54,0,19.3,0,42.3,0,17.9,0,15.1,0
2004/12/1 14:30,16.1,0,55,0,19.3,0,42.4,0,18,0,15.1,0
2004/12/1 14:45,16,0,57,0,19.4,0,42.4,0,18.2,0,15.1,0
2004/12/1 15:00,15.8,0,57,0,19.4,0,42.7,0,18.3,0,15.1,0
2004/12/1 15:15,15.8,0,57,0,19.3,0,43,0,18.3,0,15.1,0
2004/12/1 15:30,15.4,0,58,0,19.3,0,43.1,0,18.3,0,15.1,0
2004/12/1 15:45,15.1,0,60,0,19.3,0,43,0,18.4,0,15.1,0
2004/12/1 16:00,14.8,0,61,0,19.2,0,43.3,0,18.5,0,15.1,0
2004/12/1 16:15,14.3,0,65,0,19.2,0,43.5,0,18.5,0,15.1,0
2004/12/1 16:30,13.9,0,66,0,19.2,0,43.7,0,18.5,0,15.1,0
2004/12/1 16:45,13.5,0,70,0,19.1,0,43.9,0,18.4,0,15.1,0
2004/12/1 17:00,13,0,74,0,19,0,44,0,18.3,0,15.1,0
2004/12/1 17:15,12.7,0,75,0,19,0,44.1,0,18.3,0,15.1,0
2004/12/1 17:30,12.3,0,77,0,18.9,0,44.2,0,18.2,0,15.1,0
2004/12/1 17:45,12,0,79,0,18.9,0,44.3,0,18.2,0,15.1,0
2004/12/1 18:00,11.8,0,80,0,18.8,0,44.4,0,18.1,0,15.1,0
2004/12/1 18:15,11.5,0,81,0,18.8,0,44.5,0,18,0,15.2,0
2004/12/1 18:30,11.2,0,83,0,18.8,0,44.7,0,18,0,15.2,0
2004/12/1 18:45,11.1,0,84,0,18.7,0,45.1,0,18,0,15.2,0
2004/12/1 19:00,11.3,0,83,0,18.7,0,45,0,18,0,15.1,0
2004/12/1 19:15,10.9,0,84,0,18.7,0,45.4,0,18,0,15.1,0
2004/12/1 19:30,11.1,0,84,0,18.6,0,45.7,0,18,0,15.1,0
2004/12/1 19:45,10.8,0,85,0,18.6,0,45.7,0,17.9,0,15.1,0
2004/12/1 20:00,10.6,0,85,0,18.6,0,45.7,0,17.9,0,15.1,0
2004/12/1 20:15,10.4,0,86,0,19,0,45.3,0,17.8,0,15.2,0
2004/12/1 20:30,10.3,0,87,0,19.5,0,44.7,0,17.8,0,15.2,0
2004/12/1 20:45,10.3,0,88,0,19.8,0,44.1,0,17.7,0,15.2,0
2004/12/1 21:00,10.1,0,88,0,20.1,0,44.2,0,17.6,0,15.2,0
2004/12/1 21:15,10,0,89,0,20.4,0,44.3,0,17.5,0,15.2,0
2004/12/1 21:30,9.9,0,89,0,20.5,0,44.4,0,17.5,0,15.2,0
2004/12/1 21:45,9.8,0,89,0,20.7,0,45.1,0,17.4,0,15.2,0
2004/12/1 22:00,10,0,89,0,20.8,0,45.1,0,17.3,0,15.2,0
2004/12/1 22:15,10,0,89,0,20.9,0,44.9,0,17.3,0,15.2,0
2004/12/1 22:30,10,0,90,0,21,0,45.1,0,17.2,0,15.2,0
2004/12/1 22:45,10,0,90,0,21.1,0,45,0,17.2,0,15.2,0
2004/12/1 23:00,10,0,90,0,21.2,0,44.8,0,17.1,0,15.2,0
2004/12/1 23:15,10,0,90,0,21.2,0,44.8,0,17.1,0,15.2,0
2004/12/1 23:30,10,0,91,0,21.3,0,45.3,0,17,0,15.2,0
2004/12/1 23:45,10,0,92,0,21.4,0,45.1,0,17,0,15.2,0
2004/12/2 0:00,10,0,92,0,21.4,0,45,0,16.9,0,15.2,0
2004/12/2 0:15,10,0,92,0,21.4,0,45.3,0,16.9,0,15.2,0
2004/12/2 0:30,10.1,0,92,0,21.4,0,45,0,16.9,0,15.2,0
2004/12/2 0:45,9.9,0,92,0,21.4,0,44.7,0,16.9,0,15.2,0
2004/12/2 0:59,9.7,0,93,0,21.3,0,43.2,0,17,0,15.2,0
2004/12/2 1:14,9.7,0,93,0,21.3,0,43.9,0,17,0,15.2,0
2004/12/2 1:29,9.5,0,94,0,21.3,0,43.8,0,17,0,15.2,0
2004/12/2 1:44,9.5,0,94,0,21.4,0,43.9,0,17,0,15.2,0
2004/12/2 1:59,9.5,0,95,0,21.5,0,44.3,0,16.9,0,15.3,0
2004/12/2 2:14,9.5,0,94,0,21.5,0,44.1,0,16.8,0,15.5,0
2004/12/2 2:29,9.3,0,94,0,21.5,0,43.7,0,16.8,0,15.8,0
2004/12/2 2:44,9,0,95,0,21.6,0,43.8,0,16.8,0,15.8,0
2004/12/2 2:59,8.8,0,96,0,21.3,0,43.9,0,16.7,0,15.8,0
2004/12/2 3:14,8.7,0,96,0,21.1,0,44.3,0,16.7,0,15.5,0
2004/12/2 3:29,8.6,0,97,0,20.9,0,44.7,0,16.6,0,15.5,0
2004/12/2 3:44,8.7,0,97,0,20.7,0,45,0,16.5,0,15.5,0
2004/12/2 3:59,8.9,0,97,0,20.5,0,45,0,16.5,0,15.6,0
2004/12/2 4:14,8.8,0,96,0,20.3,0,45,0,16.5,0,15.6,0
2004/12/2 4:29,8.8,0,96,0,20.3,0,43.1,0,16.4,0,15.5,0
2004/12/2 4:44,8.7,0,96,0,19.7,0,43.5,0,16.6,0,15.5,0
2004/12/2 4:59,8.7,0,95,0,19.5,0,43.9,0,16.6,0,15.5,0
2004/12/2 5:14,8.4,0,96,0,19.3,0,44.3,0,16.7,0,15.5,0
2004/12/2 5:29,8.4,0,96,0,19.2,0,44.6,0,16.7,0,15.5,0
2004/12/2 5:44,8.4,0,96,0,19,0,44.7,0,16.7,0,15.5,0
2004/12/2 5:59,8.4,0,96,0,18.9,0,44.8,0,16.6,0,15.5,0
2004/12/2 6:14,8.6,0,96,0,18.8,0,45,0,16.6,0,15.5,0
2004/12/2 6:29,8.5,0,95,0,18.7,0,45.1,0,16.5,0,15.5,0
2004/12/2 6:44,8.5,0,95,0,18.6,0,45.1,0,16.5,0,15.5,0
2004/12/2 6:59,8.6,0,95,0,18.5,0,45.3,0,16.4,0,15.5,0
2004/12/2 7:14,8.9,0,95,0,18.4,0,45.4,0,16.4,0,15.5,0
2004/12/2 7:29,9.2,0,95,0,18.3,0,45.5,0,16.4,0,15.5,0
2004/12/2 7:44,9.6,0,94,0,18.2,0,45.6,0,16.3,0,15.6,0
2004/12/2 7:59,10.5,0,93,0,18.1,0,45.7,0,16.3,0,15.6,0
2004/12/2 8:14,11.2,0,90,0,18.1,0,45.7,0,16.2,0,15.6,0
2004/12/2 8:29,11.6,0,87,0,18,0,45.9,0,16.2,0,15.6,0
2004/12/2 8:44,12.4,0,83,0,18.1,0,45.9,0,16.2,0,15.2,0
2004/12/2 8:59,13.4,0,75,0,18,0,46,0,16.2,0,15.2,0
2004/12/2 9:14,13.7,0,71,0,18.1,0,46.3,0,16.2,0,15.2,0
2004/12/2 9:29,13.9,0,67,0,18.1,0,46.7,0,16.4,0,15.2,0
2004/12/2 9:44,14.3,0,64,0,18.4,0,46.4,0,16.5,0,15.2,0
2004/12/2 9:59,14.8,0,60,0,18.3,0,46.5,0,16.6,0,15.2,0
2004/12/2 10:14,15.1,0,58,0,18.2,0,46.8,0,16.7,0,15.2,0
2004/12/2 10:29,15.2,0,58,0,18.8,0,45.5,0,16.8,0,15.2,0
2004/12/2 10:44,15.6,0,54,0,18.9,0,45.2,0,16.9,0,15.2,0
2004/12/2 10:59,15.7,0,54,0,19.1,0,44.8,0,17,0,15.2,0
2004/12/2 11:14,16.3,0,51,0,19.2,0,44.6,0,17.2,0,15.2,0
2004/12/2 11:29,16.5,0,49,0,19,0,45.7,0,17.3,0,15.2,0
2004/12/2 11:44,16.7,0,47,0,19,0,46.1,0,17.5,0,15.3,0
2004/12/2 11:59,16.8,0,45,0,19,0,46.1,0,17.6,0,15.4,0
2004/12/2 12:14,17,0,43,0,19.1,0,46.4,0,17.8,0,15.4,0
2004/12/2 12:29,17.1,0,42,0,19.2,0,46.8,0,18,0,15.4,0
2004/12/2 12:44,17.2,0,41,0,19.3,0,46.7,0,18.2,0,15.4,0
2004/12/2 12:59,17.4,0,41,0,19.4,0,46.5,0,18.3,0,15.4,0
2004/12/2 13:14,17.6,0,41,0,19.5,0,46.6,0,18.5,0,15.4,0
2004/12/2 13:29,17.7,0,40,0,19.6,0,46.4,0,18.7,0,15.4,0
2004/12/2 13:44,18,0,39,0,19.7,0,46.6,0,18.9,0,15.5,0
2004/12/2 13:59,17.6,0,41,0,19.8,0,46.9,0,19.1,0,15.5,0
2004/12/2 14:14,17.5,0,41,0,19.9,0,46.4,0,19.3,0,15.5,0
2004/12/2 14:29,17.6,0,41,0,20,0,46.2,0,19.5,0,15.5,0
2004/12/2 14:44,17.4,0,40,0,20.1,0,46.1,0,19.6,0,15.5,0
2004/12/2 14:59,17.2,0,40,0,20.2,0,46.1,0,19.8,0,15.5,0
2004/12/2 15:14,17,0,42,0,20.2,0,45.7,0,20,0,15.5,0
2004/12/2 15:29,16.7,0,45,0,20.3,0,45.7,0,20.1,0,15.5,0
2004/12/2 15:44,16.3,0,47,0,20.3,0,45.8,0,20.3,0,15.6,0
2004/12/2 15:59,16,0,49,0,20.2,0,46,0,20.4,0,15.6,0
2004/12/2 16:14,15.8,0,51,0,20.1,0,46.2,0,20.5,0,15.6,0
2004/12/2 16:29,15.2,0,55,0,20,0,46.1,0,20.5,0,15.5,0
2004/12/2 16:44,14.8,0,58,0,19.9,0,45.8,0,20.4,0,15.5,0
2004/12/2 16:59,14.4,0,60,0,19.8,0,45.5,0,20.2,0,15.6,0
2004/12/2 17:14,13.9,0,64,0,19.8,0,45.4,0,20.1,0,15.6,0
2004/12/2 17:29,13.5,0,66,0,19.7,0,45.4,0,19.9,0,15.6,0
2004/12/2 17:44,13.3,0,68,0,19.6,0,45.3,0,19.7,0,15.6,0
2004/12/2 17:59,13,0,70,0,19.6,0,45.3,0,19.6,0,15.6,0
2004/12/2 18:14,12.7,0,71,0,19.5,0,45.3,0,19.4,0,15.7,0
2004/12/2 18:29,12.5,0,73,0,19.5,0,45.3,0,19.3,0,15.7,0
2004/12/2 18:44,12.3,0,73,0,19.4,0,45.3,0,19.3,0,15.7,0
2004/12/2 18:59,12.2,0,73,0,19.4,0,45.4,0,19.3,0,15.7,0
2004/12/2 19:14,12,0,74,0,19.3,0,45.6,0,19.2,0,15.8,0
2004/12/2 19:29,11.8,0,75,0,19.7,0,45.2,0,19.2,0,15.8,0
2004/12/2 19:44,11.4,0,76,0,20.1,0,44.6,0,19.1,0,15.8,0
2004/12/2 19:59,11.4,0,76,0,20.4,0,44.2,0,19,0,15.8,0
2004/12/2 20:14,11.3,0,75,0,20.8,0,44,0,18.9,0,15.8,0
2004/12/2 20:29,11.3,0,74,0,21.2,0,43.6,0,18.9,0,15.8,0
2004/12/2 20:44,11,0,76,0,21.4,0,43.4,0,18.8,0,15.8,0
2004/12/2 20:59,10.8,0,77,0,21.5,0,43.2,0,18.7,0,15.9,0
2004/12/2 21:14,10.9,0,76,0,21.7,0,42.9,0,18.6,0,15.9,0
2004/12/2 21:29,10.7,0,78,0,21.8,0,42.8,0,18.6,0,15.9,0
2004/12/2 21:44,10.7,0,77,0,21.3,0,41.3,0,18.7,0,15.9,0
2004/12/2 21:59,10.7,0,77,0,21.6,0,41.4,0,18.7,0,15.9,0
2004/12/2 22:14,10.7,0,76,0,21.9,0,41.6,0,18.5,0,15.9,0
2004/12/2 22:29,10.5,0,77,0,21.8,0,41.3,0,18.5,0,15.9,0
2004/12/2 22:44,10.3,0,79,0,22,0,41.2,0,18.4,0,15.6,0
2004/12/2 22:59,10.3,0,79,0,22.2,0,41.7,0,18.3,0,15.4,0
2004/12/2 23:14,9.8,0,81,0,22.3,0,43.1,0,18.3,0,15.4,0
2004/12/2 23:29,9.6,0,83,0,22.3,0,43.5,0,18.2,0,15.4,0
2004/12/2 23:44,9.8,0,83,0,22.4,0,43.5,0,18.1,0,15.4,0
2004/12/2 23:59,9.6,0,83,0,22.4,0,43.5,0,18,0,15.4,0
2004/12/3 0:14,9.5,0,85,0,22.4,0,43.5,0,18,0,15.3,0
2004/12/3 0:29,9.3,0,85,0,22.4,0,43.3,0,17.9,0,15.3,0
2004/12/3 0:44,9.3,0,86,0,22.5,0,43.3,0,17.9,0,15.3,0
2004/12/3 0:59,9.2,0,86,0,22.5,0,43.3,0,17.8,0,15.3,0
2004/12/3 1:14,9,0,87,0,22.4,0,43.4,0,17.7,0,15.3,0
2004/12/3 1:29,9.3,0,86,0,21.9,0,39.4,0,17.8,0,15.3,0
2004/12/3 1:44,9.4,0,86,0,21.4,0,40.1,0,17.9,0,15.3,0
2004/12/3 1:59,9.6,0,86,0,20.9,0,40.7,0,17.9,0,15.3,0
2004/12/3 2:14,9.2,0,85,0,21,0,40.3,0,17.9,0,15.3,0
2004/12/3 2:29,9,0,87,0,20.9,0,40.3,0,17.9,0,15.3,0
2004/12/3 2:44,8.9,0,88,0,20.7,0,40.5,0,17.8,0,15.3,0
2004/12/3 2:59,8.8,0,88,0,20.6,0,40.8,0,17.8,0,15.3,0
2004/12/3 3:14,8.9,0,88,0,20,0,41.7,0,17.7,0,15.3,0
2004/12/3 3:29,9.3,0,87,0,19.8,0,42.2,0,17.7,0,15.3,0
2004/12/3 3:44,8.7,0,88,0,19.7,0,42.6,0,17.6,0,15.3,0
2004/12/3 3:59,8.4,0,89,0,19.5,0,42.9,0,17.6,0,15.3,0
2004/12/3 4:14,8.4,0,90,0,19.4,0,43,0,17.5,0,15.3,0
2004/12/3 4:29,8.4,0,90,0,19.2,0,43.2,0,17.4,0,15.3,0
2004/12/3 4:44,8.6,0,89,0,19.1,0,43.3,0,17.4,0,15.3,0
2004/12/3 4:59,8.6,0,89,0,19,0,43.5,0,17.3,0,15.3,0
2004/12/3 5:14,8.4,0,90,0,18.9,0,43.6,0,17.2,0,15.3,0
2004/12/3 5:29,8.4,0,90,0,18.8,0,43.7,0,17.2,0,15.3,0
2004/12/3 5:44,8.4,0,90,0,18.7,0,43.8,0,17.1,0,15.3,0
2004/12/3 5:59,8.4,0,91,0,18.6,0,43.9,0,17.1,0,15.3,0
2004/12/3 6:14,8.8,0,89,0,18.5,0,44,0,17,0,15.3,0
2004/12/3 6:29,8.6,0,89,0,18.5,0,44.1,0,16.9,0,15.4,0
2004/12/3 6:44,8.8,0,89,0,18.4,0,44.1,0,16.9,0,15.4,0
2004/12/3 6:59,9.1,0,89,0,18.3,0,44.2,0,16.8,0,15.4,0
2004/12/3 7:14,9.8,0,86,0,18.2,0,44.3,0,16.7,0,15.4,0
2004/12/3 7:29,10.4,0,82,0,18.2,0,44.5,0,16.7,0,15.4,0
2004/12/3 7:44,11,0,79,0,18.1,0,44.6,0,16.7,0,15.4,0
2004/12/3 7:59,11.6,0,76,0,18.1,0,44.5,0,16.7,0,15.4,0
2004/12/3 8:14,12.5,0,73,0,18.1,0,44.8,0,16.7,0,15.2,0
2004/12/3 8:29,13.4,0,67,0,18.1,0,45,0,16.7,0,15.2,0
2004/12/3 8:44,14.1,0,64,0,18.1,0,45,0,16.7,0,15.2,0
2004/12/3 8:59,14.6,0,61,0,18.1,0,45.1,0,16.7,0,15.2,0
2004/12/3 9:14,15.1,0,60,0,18.1,0,45,0,16.7,0,15.2,0
2004/12/3 9:29,15.6,0,58,0,18.1,0,45,0,16.7,0,15.3,0
2004/12/3 9:44,16,0,55,0,18.1,0,45.1,0,16.8,0,15.3,0
2004/12/3 9:59,16.3,0,55,0,18.1,0,45.2,0,16.8,0,15.3,0
2004/12/3 10:14,16.8,0,55,0,18.1,0,45.3,0,16.9,0,15.3,0
2004/12/3 10:29,17.1,0,54,0,18.1,0,45.4,0,17,0,15.3,0
2004/12/3 10:44,17.4,0,53,0,18.2,0,45.3,0,17.1,0,15.3,0
2004/12/3 10:59,17.8,0,52,0,18.3,0,45.2,0,17.2,0,15.3,0
2004/12/3 11:14,18.4,0,51,0,18.5,0,45,0,17.3,0,15.3,0
2004/12/3 11:29,18.9,0,50,0,18.6,0,45,0,17.5,0,15.3,0
2004/12/3 11:44,19.3,0,49,0,18.8,0,44.9,0,17.7,0,15.3,0
2004/12/3 11:59,19.6,0,49,0,18.9,0,44.9,0,17.8,0,15.3,0
2004/12/3 12:14,19.7,0,48,0,19,0,44.9,0,18,0,15.3,0
2004/12/3 12:29,20,0,47,0,19.2,0,45,0,18.2,0,15.3,0
2004/12/3 12:44,20.3,0,46,0,19.3,0,45.1,0,18.4,0,15.3,0
2004/12/3 12:59,20.3,0,46,0,19.4,0,45.1,0,18.6,0,15.4,0
2004/12/3 13:14,20.7,0,44,0,19.5,0,45.2,0,18.8,0,15.4,0
2004/12/3 13:29,20.8,0,44,0,19.7,0,45.3,0,19,0,15.4,0
2004/12/3 13:44,20.9,0,44,0,19.8,0,45.4,0,19.2,0,15.4,0
2004/12/3 13:59,20.7,0,46,0,19.9,0,45.5,0,19.5,0,15.4,0
2004/12/3 14:14,20.8,0,44,0,20,0,45.6,0,19.7,0,15.4,0
2004/12/3 14:29,20.6,0,46,0,20.2,0,45.8,0,19.9,0,15.4,0
2004/12/3 14:44,20.3,0,47,0,20.3,0,45.9,0,20.2,0,15.4,0
2004/12/3 14:59,20.1,0,49,0,20.4,0,46,0,20.4,0,15.5,0
2004/12/3 15:14,19.7,0,51,0,20.5,0,46.1,0,20.6,0,15.5,0
2004/12/3 15:29,19.2,0,53,0,20.5,0,46.1,0,20.8,0,15.5,0
2004/12/3 15:44,18.9,0,53,0,20.5,0,46.2,0,21,0,15.5,0
2004/12/3 15:59,18.4,0,56,0,20.4,0,46.4,0,21.1,0,15.5,0
2004/12/3 16:14,17.9,0,59,0,20.3,0,46.6,0,21.1,0,15.5,0
2004/12/3 16:29,17.2,0,64,0,20.3,0,46.6,0,21,0,15.6,0
2004/12/3 16:44,16.6,0,66,0,20.3,0,47.1,0,21,0,15.6,0
2004/12/3 16:59,16.1,0,68,0,20.2,0,47,0,20.9,0,15.6,0
2004/12/3 17:14,15.7,0,69,0,20.2,0,47,0,20.9,0,15.7,0
2004/12/3 17:29,15.5,0,71,0,20.1,0,47.1,0,20.8,0,15.7,0
2004/12/3 17:44,15.2,0,69,0,20,0,47.2,0,20.7,0,15.7,0
2004/12/3 17:59,14.9,0,71,0,20,0,47.3,0,20.6,0,15.7,0
2004/12/3 18:14,14.8,0,71,0,20,0,47.3,0,20.6,0,15.7,0
2004/12/3 18:29,14.7,0,70,0,20,0,47.4,0,20.5,0,15.8,0
2004/12/3 18:44,14.4,0,71,0,19.9,0,47.4,0,20.4,0,15.8,0
2004/12/3 18:59,14.4,0,71,0,19.9,0,47.4,0,20.3,0,15.8,0
2004/12/3 19:14,14.6,0,70,0,19.9,0,47.5,0,20.3,0,15.7,0
2004/12/3 19:29,14.6,0,69,0,19.8,0,47.7,0,20.2,0,15.7,0
2004/12/3 19:44,14.4,0,72,0,19.8,0,47.6,0,20.1,0,15.8,0
2004/12/3 19:59,14.3,0,72,0,19.9,0,47.6,0,20,0,15.8,0
2004/12/3 20:14,14.1,0,73,0,20,0,47.2,0,19.9,0,15.8,0
2004/12/3 20:29,14,0,75,0,20,0,47.1,0,19.9,0,15.7,0
2004/12/3 20:44,14.3,0,73,0,20,0,48.1,0,19.8,0,15.7,0
2004/12/3 20:59,14.1,0,74,0,20,0,48.1,0,19.8,0,15.7,0
2004/12/3 21:14,14.1,0,74,0,20.3,0,47.6,0,19.7,0,15.6,0
2004/12/3 21:29,13.9,0,75,0,20.9,0,47,0,19.7,0,15.6,0
2004/12/3 21:44,13.8,0,76,0,21.4,0,47,0,19.6,0,15.6,0
2004/12/3 21:59,13.8,0,76,0,21.7,0,45.8,0,19.5,0,15.7,0
2004/12/3 22:14,14,0,76,0,22,0,46.3,0,19.5,0,15.7,0
2004/12/3 22:29,13.9,0,76,0,22.3,0,46.5,0,19.4,0,15.7,0
2004/12/3 22:44,13.6,0,78,0,22.4,0,46.2,0,19.4,0,15.6,0
2004/12/3 22:59,13.6,0,79,0,22.6,0,46.1,0,19.3,0,15.6,0
2004/12/3 23:14,13.5,0,79,0,22.8,0,46.2,0,19.3,0,15.7,0
2004/12/3 23:29,13.5,0,80,0,22.9,0,45.9,0,19.2,0,15.5,0
2004/12/3 23:44,13.7,0,79,0,23,0,46.1,0,19.2,0,15.6,0
2004/12/3 23:59,13.7,0,80,0,23,0,46.2,0,19.2,0,15.6,0
2004/12/4 0:14,13.7,0,80,0,23.1,0,46.2,0,19.1,0,15.6,0
2004/12/4 0:29,13.6,0,81,0,23.2,0,46.1,0,19.1,0,15.6,0
2004/12/4 0:44,13.8,0,81,0,23.2,0,46.2,0,19,0,15.6,0
2004/12/4 0:59,13.8,0,81,0,23.3,0,45.9,0,19,0,15.7,0
2004/12/4 1:14,13.8,0,81,0,23.3,0,45.9,0,19,0,15.7,0
2004/12/4 1:29,13.6,0,82,0,22.8,0,42.5,0,19,0,15.7,0
2004/12/4 1:44,13.4,0,83,0,22.5,0,43,0,19.1,0,15.7,0
2004/12/4 1:59,13.6,0,83,0,22.3,0,43.4,0,19.1,0,15.7,0
2004/12/4 2:14,13.6,0,83,0,22.1,0,43.6,0,19.1,0,15.6,0
2004/12/4 2:29,13.8,0,82,0,22,0,43.7,0,19.1,0,15.6,0
2004/12/4 2:44,14,0,81,0,21.8,0,43.9,0,19.1,0,15.6,0
2004/12/4 2:59,14,0,81,0,22,0,43.7,0,19.1,0,15.6,0
2004/12/4 3:14,14.1,0,81,0,22.2,0,43.9,0,19,0,15.7,0
2004/12/4 3:29,14,0,82,0,22.2,0,43.1,0,19,0,15.6,0
2004/12/4 3:44,13.8,0,83,0,21.9,0,43.8,0,19,0,15.6,0
2004/12/4 3:59,13.8,0,84,0,21.5,0,44.4,0,19,0,15.7,0
2004/12/4 4:14,13.8,0,84,0,21.3,0,44.9,0,19,0,15.7,0
2004/12/4 4:29,13.8,0,85,0,21.1,0,45.1,0,18.9,0,15.7,0
2004/12/4 4:44,14,0,84,0,21,0,45.4,0,18.9,0,15.7,0
2004/12/4 4:59,14.2,0,83,0,20.8,0,45.8,0,18.9,0,15.7,0
2004/12/4 5:14,14.3,0,83,0,20.7,0,46.1,0,18.8,0,15.8,0
2004/12/4 5:29,14.4,0,82,0,20.6,0,46.3,0,18.8,0,15.8,0
2004/12/4 5:44,14.4,0,82,0,20.5,0,46.5,0,18.8,0,15.8,0
2004/12/4 5:59,14.4,0,83,0,20.4,0,46.7,0,18.8,0,15.8,0
2004/12/4 6:14,14.4,0,83,0,20.4,0,46.9,0,18.7,0,15.8,0
2004/12/4 6:29,14.4,0,83,0,20.3,0,47.1,0,18.7,0,15.9,0
2004/12/4 6:44,14.4,0,82,0,20.2,0,47.2,0,18.7,0,15.9,0
2004/12/4 6:59,14.6,0,82,0,20.1,0,47.4,0,18.7,0,15.9,0
2004/12/4 7:14,14.6,0,83,0,20.1,0,47.6,0,18.7,0,15.9,0
2004/12/4 7:29,14.8,0,83,0,20,0,47.8,0,18.6,0,15.9,0
2004/12/4 7:44,14.9,0,83,0,20,0,47.7,0,18.6,0,16,0
2004/12/4 7:59,15,0,84,0,19.9,0,47.9,0,18.6,0,16,0
2004/12/4 8:14,15.1,0,85,0,19.9,0,48.1,0,18.6,0,16,0
2004/12/4 8:29,15,0,88,0,19.8,0,48.2,0,18.6,0,16,0
2004/12/4 8:44,14.9,0,91,0,19.8,0,48.3,0,18.6,0,16,0
2004/12/4 8:59,14.9,0,93,0,19.8,0,48.5,0,18.5,0,16,0
2004/12/4 9:14,15.1,0,94,0,19.7,0,48.7,0,18.5,0,16.1,0
2004/12/4 9:29,15.5,0,95,0,19.7,0,48.9,0,18.5,0,16.1,0
2004/12/4 9:44,15.7,0,95,0,19.7,0,49.1,0,18.5,0,16.1,0
2004/12/4 9:59,15.5,0,96,0,19.6,0,49.4,0,18.5,0,16.1,0
2004/12/4 10:14,15.3,0,97,0,19.6,0,49.6,0,18.5,0,16.1,0
2004/12/4 10:29,15.3,0,98,0,19.6,0,49.8,0,18.5,0,16.1,0
2004/12/4 10:44,15.3,0,99,0,19.6,0,50.1,0,18.5,0,16.2,0
2004/12/4 10:59,15.5,0,99,0,19.6,0,50.3,0,18.5,0,16.2,0
2004/12/4 11:14,15.6,0,99,0,19.5,0,50.5,0,18.5,0,16.2,0
2004/12/4 11:29,15.6,0,99,0,19.5,0,50.9,0,18.5,0,16.2,0
2004/12/4 11:44,15.5,0,99,0,19.6,0,50.8,0,18.5,0,16,0
2004/12/4 11:59,15.5,0,99,0,19.8,0,51.5,0,18.4,0,16,0
2004/12/4 12:14,15.4,0,99,0,19.9,0,51.3,0,18.4,0,15.8,0
2004/12/4 12:29,15.4,0,99,0,20,0,51.7,0,18.4,0,15.8,0
2004/12/4 12:44,15.5,0,99,0,20.2,0,52.1,0,18.4,0,15.8,0
2004/12/4 12:59,15.8,0,99,0,20.3,0,52.4,0,18.4,0,15.9,0
2004/12/4 13:14,15.6,0,99,0,20.4,0,52.2,0,18.4,0,15.9,0
2004/12/4 13:29,15.5,0,99,0,20.5,0,52.2,0,18.4,0,15.8,0
2004/12/4 13:44,15.4,0,99,0,20.6,0,52.3,0,18.4,0,15.8,0
2004/12/4 13:59,15.4,0,99,0,20.6,0,52.4,0,18.4,0,15.8,0
2004/12/4 14:14,15.4,0,99,0,20.7,0,52.2,0,18.4,0,15.8,0
2004/12/4 14:29,15.3,0,99,0,20.7,0,53.3,0,18.4,0,15.8,0
2004/12/4 14:44,15.3,0,99,0,20.7,0,53.7,0,18.4,0,15.8,0
2004/12/4 14:59,15.2,0,99,0,20.7,0,53.7,0,18.4,0,15.8,0
2004/12/4 15:14,15.1,0,99,0,20.7,0,53.9,0,18.4,0,15.8,0
2004/12/4 15:29,15,0,99,0,20.8,0,54.3,0,18.4,0,15.8,0
2004/12/4 15:44,15,0,99,0,20.7,0,54.2,0,18.4,0,15.9,0
2004/12/4 15:59,15,0,99,0,20.7,0,54,0,18.4,0,15.9,0
2004/12/4 16:14,14.9,0,99,0,20.7,0,53.8,0,18.4,0,15.9,0
2004/12/4 16:29,14.9,0,99,0,21,0,53.9,0,18.4,0,15.9,0
2004/12/4 16:44,15,0,99,0,21.1,0,53.5,0,18.4,0,15.8,0
2004/12/4 16:59,15,0,99,0,21.2,0,53.4,0,18.4,0,15.8,0
2004/12/4 17:14,14.9,0,99,0,21.3,0,53.3,0,18.4,0,15.8,0
2004/12/4 17:29,14.9,0,99,0,21.3,0,52.5,0,18.4,0,15.8,0
2004/12/4 17:44,15,0,99,0,21.5,0,52,0,18.5,0,15.8,0
2004/12/4 17:59,14.9,0,99,0,21.7,0,51.4,0,18.4,0,15.8,0
2004/12/4 18:14,15,0,99,0,22,0,50.6,0,18.4,0,15.9,0
2004/12/4 18:29,15,0,99,0,22.2,0,49.8,0,18.4,0,15.9,0
2004/12/4 18:44,15,0,99,0,22.3,0,50.2,0,18.3,0,15.9,0
2004/12/4 18:59,15,0,99,0,22.4,0,49.7,0,18.3,0,15.9,0
2004/12/4 19:14,15.1,0,99,0,22.5,0,49.9,0,18.3,0,15.9,0
2004/12/4 19:29,15.1,0,99,0,22.7,0,51.2,0,18.3,0,16,0
2004/12/4 19:44,15.1,0,99,0,22.8,0,51.7,0,18.4,0,16,0
2004/12/4 19:59,15.2,0,99,0,22.9,0,51.8,0,18.3,0,16,0
2004/12/4 20:14,15.2,0,99,0,23,0,50.2,0,18.3,0,16,0
2004/12/4 20:29,15.4,0,99,0,23,0,51,0,18.4,0,16,0
2004/12/4 20:44,15.5,0,99,0,23.1,0,51.4,0,18.4,0,16,0
2004/12/4 20:59,15.5,0,99,0,23.2,0,51.5,0,18.4,0,16.1,0
2004/12/4 21:14,15.6,0,99,0,23.3,0,51.5,0,18.4,0,16.1,0
2004/12/4 21:29,15.7,0,99,0,23.4,0,51.5,0,18.4,0,16,0
2004/12/4 21:44,15.8,0,99,0,23.4,0,51.5,0,18.4,0,16,0
2004/12/4 21:59,15.9,0,99,0,23.5,0,51.4,0,18.4,0,16.1,0
2004/12/4 22:14,16.1,0,99,0,23.5,0,51.3,0,18.4,0,16.1,0
2004/12/4 22:29,16.2,0,99,0,23.6,0,51.5,0,18.4,0,16.1,0
2004/12/4 22:44,16.1,0,99,0,23.6,0,51.8,0,18.4,0,15.8,0
2004/12/4 22:59,15.4,0,99,0,23.3,0,49.8,0,18.5,0,15.8,0
2004/12/4 23:14,14.9,0,99,0,23.3,0,49.2,0,18.7,0,15.2,0
2004/12/4 23:29,15,0,99,0,23.3,0,50.5,0,18.7,0,15.3,0
2004/12/4 23:44,14.9,0,99,0,23.3,0,50.6,0,18.7,0,15.3,0
2004/12/4 23:59,15,0,99,0,23.1,0,48.8,0,18.8,0,15.3,0
2004/12/5 0:14,15.1,0,99,0,23.2,0,49.9,0,18.9,0,15.5,0
2004/12/5 0:29,15.2,0,99,0,23.2,0,50.1,0,18.8,0,15.5,0
2004/12/5 0:44,15.3,0,99,0,23.3,0,50.4,0,18.8,0,15.6,0
2004/12/5 0:59,15.3,0,99,0,23.4,0,50.6,0,18.7,0,15.6,0
2004/12/5 1:14,15.2,0,99,0,23.4,0,50.5,0,18.7,0,15.6,0
2004/12/5 1:29,15.4,0,99,0,23.4,0,50.5,0,18.7,0,15.6,0
2004/12/5 1:44,15.1,0,99,0,23.5,0,50.7,0,18.7,0,15.6,0
2004/12/5 1:59,14.5,0,99,0,23.5,0,50.7,0,18.7,0,15.6,0
2004/12/5 2:14,13.6,0,99,0,23.5,0,50.7,0,18.6,0,15.7,0
2004/12/5 2:29,13.3,0,99,0,23.5,0,50.7,0,18.6,0,15.7,0
2004/12/5 2:44,13.3,0,99,0,23.6,0,50.6,0,18.6,0,16,0
2004/12/5 2:59,13.2,0,99,0,23.6,0,50.5,0,18.6,0,16,0
2004/12/5 3:14,13,0,99,0,23.8,0,49.8,0,18.7,0,16,0
2004/12/5 3:29,13.2,0,92,0,23.8,0,49.7,0,18.6,0,16,0
2004/12/5 3:44,13.3,0,84,0,23.8,0,49.8,0,18.6,0,16,0
2004/12/5 3:59,13.3,0,79,0,23.8,0,49.9,0,18.6,0,16,0
2004/12/5 4:14,13.2,0,77,0,22.9,0,49.3,0,18.7,0,16.1,0
2004/12/5 4:29,13,0,74,0,22.5,0,50.1,0,18.8,0,16.1,0
2004/12/5 4:44,13,0,72,0,22.2,0,50.5,0,18.8,0,16.1,0
2004/12/5 4:59,12.9,0,69,0,22,0,50.6,0,18.8,0,16.1,0
2004/12/5 5:14,12.8,0,70,0,21.7,0,50.7,0,18.8,0,16.1,0
2004/12/5 5:29,12.7,0,69,0,21.5,0,50.7,0,18.8,0,16.2,0
2004/12/5 5:44,12.6,0,70,0,21.4,0,50.6,0,18.7,0,16.2,0
2004/12/5 5:59,12.7,0,68,0,21.2,0,50.6,0,18.7,0,16.2,0
2004/12/5 6:14,12.5,0,70,0,21.1,0,50.5,0,18.7,0,16.2,0
2004/12/5 6:29,12.5,0,69,0,21,0,50.4,0,18.6,0,16.3,0
2004/12/5 6:44,12.4,0,69,0,20.8,0,50.3,0,18.6,0,16.3,0
2004/12/5 6:59,12.3,0,66,0,20.7,0,50.2,0,18.5,0,16.3,0
2004/12/5 7:14,12.2,0,64,0,20.6,0,50.1,0,18.5,0,16.3,0
2004/12/5 7:29,12.2,0,67,0,20.5,0,49.9,0,18.4,0,16.3,0
2004/12/5 7:44,12.2,0,65,0,20.4,0,49.9,0,18.4,0,16.2,0
2004/12/5 7:59,12.2,0,64,0,20.3,0,49.7,0,18.3,0,16.2,0
2004/12/5 8:14,12.1,0,63,0,20.2,0,49.5,0,18.2,0,16.2,0
2004/12/5 8:29,12,0,60,0,20.1,0,49.3,0,18.2,0,16.2,0
2004/12/5 8:44,12.2,0,62,0,20,0,49.2,0,18.1,0,16.2,0
2004/12/5 8:59,12.6,0,60,0,20,0,49,0,18.1,0,16.3,0
2004/12/5 9:14,12.8,0,58,0,19.9,0,48.9,0,18.1,0,16.3,0
2004/12/5 9:29,12.7,0,55,0,19.8,0,48.7,0,18,0,16.3,0
2004/12/5 9:44,13.3,0,54,0,19.8,0,48.5,0,18,0,16.3,0
2004/12/5 9:59,13.4,0,49,0,19.8,0,48.2,0,18,0,16.3,0
2004/12/5 10:14,13.5,0,52,0,19.7,0,48.1,0,17.9,0,16.3,0
2004/12/5 10:29,13.5,0,51,0,19.7,0,47.8,0,17.9,0,16.3,0
2004/12/5 10:44,13.5,0,51,0,19.7,0,47.6,0,17.9,0,16.3,0
2004/12/5 10:59,13.5,0,50,0,19.8,0,47.3,0,17.9,0,16.4,0
2004/12/5 11:14,13.8,0,49,0,19.9,0,46.9,0,17.9,0,16.4,0
2004/12/5 11:29,13.9,0,51,0,20,0,46.4,0,18,0,16.4,0